Weather History for KCEZ - September, 2014

Change the Weather History Date:

Friday, September 12, 2014

  Actual Average Record
Temperature  
Mean Temperature 61 °F 62 °F  
Max Temperature 81 °F 79 °F 88 °F (2000)
Min Temperature 41 °F 44 °F 36 °F (2010)
Degree Days  
Heating Degree Days 4 4  
Month to date heating degree days 25 31  
Since 1 July heating degree days 35 43  
Cooling Degree Days 0 1  
Month to date cooling degree days 11 15  
Year to date cooling degree days 523 424  
Growing Degree Days 12 (Base 50)    
Moisture  
Dew Point 37 °F    
Average Humidity 52    
Maximum Humidity 89    
Minimum Humidity 15    
Precipitation  
Precipitation 0.00 in 0.05 in 0.69 in (2013)
Month to date precipitation 1.03 0.64  
Year to date precipitation 6.13 9.08  
Sea Level Pressure  
Sea Level Pressure 30.03 in    
Wind  
Wind Speed 5 mph (NNE)    
Max Wind Speed 15 mph    
Max Gust Speed 21 mph    
Visibility 10 miles    
Events      
T = Trace of Precipitation, MM = Missing Value Source: NWS Daily Summary

Daily Weather History Graph

Daily Weather History Graph

Search for Another Location

Airport or City:

Trip Planner

Search our weather history database for the weather conditions in past years. The results will help you decide how hot, cold, wet, or windy it might be!

Date:

Astronomy

Sep. 12, 2014 Rise Set
Actual Time 6:54 AM MDT 7:26 PM MDT
Civil Twilight 6:27 AM MDT 7:52 PM MDT
Nautical Twilight 5:56 AM MDT 8:23 PM MDT
Astronomical Twilight 5:25 AM MDT 8:55 PM MDT
Moon 9:55 PM MDT (9/12) 10:55 AM MDT (9/12)
Length of Visible Light 13h 24m
Length of Day
12h 32m
Waning Gibbous, 82% of the Moon is Illuminated
Sep 12
Waning Gibbous
Sep 15
Last Quarter
Sep 24
New
Oct 1
First Quarter
Oct 8
Full

Hourly Weather History & Observations

Time (MDT) Temp. Windchill Dew Point Humidity Pressure Visibility Wind Dir Wind Speed Gust Speed Precip Events Conditions
12:53 AM 50.0 °F - 42.1 °F 74% 30.00 in 10.0 mi ENE 5.8 mph - N/A   Clear
1:53 AM 48.9 °F - 42.1 °F 77% 30.00 in 10.0 mi ENE 4.6 mph - N/A   Clear
2:53 AM 46.9 °F - 42.1 °F 83% 30.01 in 10.0 mi East 5.8 mph - N/A   Clear
3:53 AM 45.0 °F 41.2 °F 41.0 °F 86% 30.03 in 10.0 mi ENE 6.9 mph - N/A   Clear
4:53 AM 44.1 °F 42.5 °F 41.0 °F 89% 30.03 in 10.0 mi ENE 3.5 mph - N/A   Clear
6:53 AM 42.1 °F - 39.0 °F 89% 30.08 in 10.0 mi Calm Calm - N/A   Clear
7:53 AM 46.9 °F - 42.1 °F 83% 30.11 in 10.0 mi Calm Calm - N/A   Clear
8:53 AM 55.0 °F - 42.1 °F 62% 30.10 in 10.0 mi Calm Calm - N/A   Clear
9:53 AM 63.0 °F - 43.0 °F 48% 30.09 in 10.0 mi Calm Calm - N/A   Clear
10:53 AM 69.1 °F - 41.0 °F 36% 30.07 in 10.0 mi Calm Calm - N/A   Clear
11:53 AM 75.0 °F - 34.0 °F 22% 30.05 in 10.0 mi East 4.6 mph - N/A   Clear
12:53 PM 79.0 °F - 33.1 °F 19% 30.03 in 10.0 mi NNW 6.9 mph - N/A   Clear
1:53 PM 80.1 °F - 32.0 °F 17% 30.01 in 10.0 mi WNW 11.5 mph - N/A   Clear
2:53 PM 80.1 °F - 30.0 °F 16% 29.99 in 10.0 mi West 10.4 mph 17.3 mph N/A   Clear
3:53 PM 80.1 °F - 28.9 °F 15% 29.98 in 10.0 mi NW 5.8 mph 18.4 mph N/A   Clear
4:53 PM 81.0 °F - 30.0 °F 16% 29.97 in 10.0 mi WNW 13.8 mph 19.6 mph N/A   Clear
5:53 PM 79.0 °F - 30.0 °F 17% 29.99 in 10.0 mi North 12.7 mph - N/A   Clear
6:53 PM 75.0 °F - 33.1 °F 22% 29.99 in 10.0 mi North 8.1 mph - N/A   Clear
7:53 PM 66.9 °F - 37.0 °F 33% 30.01 in 10.0 mi North 6.9 mph - N/A   Clear
9:53 PM 55.0 °F - 42.1 °F 62% 30.05 in 10.0 mi ENE 5.8 mph - N/A   Clear
10:53 PM 52.0 °F - 39.0 °F 61% 30.04 in 10.0 mi NE 3.5 mph - N/A   Clear
11:53 PM 51.1 °F - 39.0 °F 63% 30.03 in 10.0 mi East 6.9 mph - N/A   Clear